This demonstration page uses our WeatherBlox Daily Observations layout. Learn more.

Left ArrowRight Arrow

Hourly Observations for September 6, 2019

Temp ( °F °C ) Dew Point ( °F °C ) Humidity (%) Winds ( mph kmh ) Pressure ( in mb ) Visibility ( mi km ) Precip ( " mm )
12:53 am 00:53 Clear 74 23.3 70 21.1 88 88 NNE 9 15 30.01 1016 10 16 0.00 0.00
1:53 am 01:53 Clear 73 22.8 69 20.6 87 87 NNE 9 15 30.03 1017 10 16 0.00 0.00
2:53 am 02:53 Clear 71 21.7 66 18.9 84 84 N 9 15 30.05 1018 10 16 0.00 0.00
3:53 am 03:53 Clear 69 20.6 64 17.8 84 84 NNE 12 19 30.05 1018 10 16 0.00 0.00
4:53 am 04:53 Clear 67 19.4 62 16.7 84 84 NNE 10 17 30.05 1018 10 16 0.00 0.00
5:53 am 05:53 Clear 65 18.3 60 15.6 84 84 NNE 8 13 30.07 1018 10 16 0.00 0.00
6:53 am 06:53 Clear 64 17.8 60 15.6 87 87 NNE 6 9 30.10 1019 10 16 0.00 0.00
7:53 am 07:53 Sunny with Mist and Fog 64 17.8 60 15.6 87 87 NNE 9 15 30.12 1020 6 10 0.00 0.00
8:53 am 08:53 Sunny 66 18.9 60 15.6 81 81 NNE 8 13 30.16 1021 10 16 0.00 0.00
9:53 am 09:53 Sunny 68 20 61 16.1 78 78 NNE 10 17 30.18 1022 10 16 0.00 0.00
10:53 am 10:53 Sunny 71 21.7 59 15 66 66 NE 12 19 30.17 1022 10 16 0.00 0.00
11:53 am 11:53 Sunny 73 22.8 59 15 62 62 NE 12 19 30.17 1022 10 16 0.00 0.00
12:53 pm 12:53 Sunny 75 23.9 59 15 58 58 NNE 10 17 30.16 1022 10 16 0.00 0.00
1:53 pm 13:53 Sunny 74 23.3 58 14.4 57 57 NNE 10 17 30.16 1022 10 16 0.00 0.00
2:53 pm 14:53 Sunny 76 24.4 59 15 56 56 E 13 20 30.11 1020 10 16 0.00 0.00
3:53 pm 15:53 Sunny 76 24.4 58 14.4 54 54 NNE 9 15 30.14 1021 10 16 0.00 0.00
4:53 pm 16:53 Sunny 75 23.9 58 14.4 55 55 NE 8 13 30.14 1021 10 16 0.00 0.00
5:53 pm 17:53 Sunny 75 23.9 59 15 58 58 NE 6 9 30.13 1020 10 16 0.00 0.00
6:53 pm 18:53 Sunny 74 23.3 59 15 60 60 E 8 13 30.11 1020 10 16 0.00 0.00
7:53 pm 19:53 Sunny 72 22.2 60 15.6 66 66 ESE 3 6 30.11 1020 10 16 0.00 0.00
8:53 pm 20:53 Clear 69 20.6 62 16.7 78 78 E 5 7 30.12 1020 9 14 0.00 0.00
9:53 pm 21:53 Clear 70 21.1 60 15.6 71 71 E 5 7 30.13 1020 10 16 0.00 0.00
10:53 pm 22:53 Clear 67 19.4 61 16.1 81 81 ENE 5 7 30.14 1021 9 14 0.00 0.00
11:53 pm 23:53 Clear 65 18.3 60 15.6 84 84 E 5 7 30.12 1020 7 11 0.00 0.00

Powered by AerisWeather